Bluefield, WV

12:14 AM EST on December 13, 2019 (GMT -0500)
Mercer County

Weather History for KBLF - May, 2019

Change the Weather History Date:

Tuesday, May 21, 2019

  Actual Average Record
Temperature  
Mean Temperature 62 °F 64 °F  
Max Temperature 73 °F 73 °F 90 °F (1941)
Min Temperature 50 °F 54 °F 33 °F (2002)
Degree Days  
Heating Degree Days 3 4  
Month to date heating degree days 81 108  
Since 1 July heating degree days 4854 4538  
Cooling Degree Days 0 2  
Month to date cooling degree days 28 33  
Year to date cooling degree days 33 61  
Growing Degree Days 12 (Base 50)    
Moisture  
Dew Point 49 °F    
Average Humidity 70    
Maximum Humidity 96    
Minimum Humidity 44    
Precipitation  
Precipitation 0.00 in 0.14 in 1.82 in (1970)
Month to date precipitation 4.31 2.82  
Year to date precipitation 18.01 15.33  
Snow  
Snow 0.00 in - - ()
Month to date snowfall 0.0  
Since 1 July snowfall 30.8  
Snow Depth 0.00 in    
Sea Level Pressure  
Sea Level Pressure 30.02 in    
Wind  
Wind Speed 4 mph (WNW)    
Max Wind Speed 9 mph    
Max Gust Speed 14 mph    
Visibility 10 miles    
Events      
T = Trace of Precipitation, MM = Missing Value Source: NWS Daily Summary

Daily Weather History Graph

Daily Weather History Graph

Search for Another Location

Airport or City:

Astronomy

May. 21, 2019 Rise Set
Actual Time 6:11 AM EDT 8:31 PM EDT
Civil Twilight 5:42 AM EDT 9:01 PM EDT
Nautical Twilight 5:05 AM EDT 9:37 PM EDT
Astronomical Twilight 4:25 AM EDT 10:17 PM EDT
Moon 11:25 PM EDT (5/21) 8:27 AM EDT (5/21)
Length of Visible Light 15h 19m
Length of Day
14h 19m
Waning Gibbous, 91% of the Moon is Illuminated
May 21
Waning Gibbous
May 26
Last Quarter
Jun 3
New
Jun 10
First Quarter
Jun 17
Full

Hourly Weather History & Observations

Time (EDT) Temp. Dew Point Humidity Pressure Visibility Wind Dir Wind Speed Gust Speed Precip Events Conditions
12:52 AM 57.9 °F 48.9 °F 72% 29.99 in 10.0 mi West 3.5 mph - N/A   Clear
1:52 AM 55.9 °F 48.9 °F 77% 29.98 in 10.0 mi West 4.6 mph - N/A   Clear
2:52 AM 55.0 °F 48.9 °F 80% 29.97 in 10.0 mi West 3.5 mph - N/A   Clear
3:52 AM 54.0 °F 48.9 °F 83% 29.97 in 10.0 mi Calm Calm - N/A   Clear
4:52 AM 53.1 °F 48.9 °F 86% 29.98 in 10.0 mi West 3.5 mph - N/A   Clear
5:52 AM 53.1 °F 48.9 °F 86% 29.99 in 10.0 mi WNW 3.5 mph - N/A   Clear
6:52 AM 52.0 °F 50.0 °F 93% 30.00 in 10.0 mi Calm Calm - N/A   Clear
7:52 AM 53.1 °F 50.0 °F 89% 30.03 in 10.0 mi Calm Calm - N/A   Clear
8:52 AM 57.0 °F 51.1 °F 81% 30.03 in 10.0 mi Calm Calm - N/A   Clear
9:52 AM 61.0 °F 52.0 °F 72% 30.04 in 10.0 mi WSW 6.9 mph - N/A   Clear
10:52 AM 64.0 °F 50.0 °F 60% 30.04 in 10.0 mi Variable 3.5 mph - N/A   Clear
11:52 AM 66.0 °F 48.0 °F 52% 30.04 in 10.0 mi WNW 8.1 mph - N/A   Clear
12:52 PM 66.9 °F 48.0 °F 51% 30.04 in 10.0 mi Variable 4.6 mph - N/A   Clear
1:52 PM 69.1 °F 48.0 °F 47% 30.03 in 10.0 mi Variable 4.6 mph - N/A   Clear
2:52 PM 70.0 °F 46.0 °F 42% 30.01 in 10.0 mi Variable 3.5 mph - N/A   Clear
3:52 PM 71.1 °F 48.9 °F 45% 30.01 in 10.0 mi Variable 5.8 mph - N/A   Clear
4:52 PM 71.1 °F 53.1 °F 53% 30.02 in 10.0 mi Calm Calm - N/A   Clear
5:52 PM 71.1 °F 48.0 °F 44% 30.02 in 10.0 mi Calm Calm - N/A   Clear
6:52 PM 72.0 °F 48.0 °F 43% 30.02 in 10.0 mi North 5.8 mph - N/A   Clear
7:52 PM 70.0 °F 46.9 °F 44% 30.04 in 10.0 mi Calm Calm - N/A   Clear
8:52 PM 64.0 °F 52.0 °F 65% 30.05 in 10.0 mi ENE 4.6 mph - N/A   Clear
9:52 PM 61.0 °F 51.1 °F 70% 30.06 in 10.0 mi East 4.6 mph - N/A   Clear
10:52 PM 60.1 °F 51.1 °F 72% 30.07 in 10.0 mi East 3.5 mph - N/A   Clear
11:52 PM 61.0 °F 50.0 °F 67% 30.07 in 10.0 mi ESE 5.8 mph - N/A   Clear